Back to catalog

RADUGA 30

AliveMilitaryGEO
NORAD 22836·PAYLOAD·🇷🇺 Russia

Launched Sep 30, 1993 from Baikonur Cosmodrome

Loading…

TLE

FreshSource: Space-Track

Epoch: Sep 13, 2026, 19:21 UTC

1 22836U 93062A   26256.80629486 -.00000133  00000-0  00000-0 0  9993
2 22836  13.9753 346.4806 0004994 318.7131  54.8332  1.00259305 46899

Track RADUGA 30 in real time with AllMySat

Download on the App Store